Location: Newark
(55.5030°N, 22.7200°E)
Time: 18:51:12
(UTC+00:00)

Vanguard 3 - Visible Passes

Search period start: 06 June 2020 00:00
Search period end: 16 June 2020 00:00
Orbit: 509 x 3261 km, 33.3° (Epoch: 05 June)

Date Brightness Start Highest point End Pass type
(mag) Time Alt. Az. Time Alt. Az. Time Alt. Az.
06 Jun 10.7 22:14:48 13° S 22:24:49 20° SSE 22:35:17 10° ESE visible
07 Jun 10.3 00:22:57 10° SW 00:37:28 29° S 00:48:27 10° ESE visible
07 Jun 10.9 21:01:18 10° SSE 21:10:01 15° SE 21:18:15 10° ESE visible
07 Jun 10.5 23:07:57 10° SSW 23:22:24 27° SSE 23:34:14 10° ESE visible
08 Jun 10.6 21:54:07 10° SSW 22:07:17 23° SSE 22:19:05 10° ESE visible
09 Jun 10.3 00:04:44 10° SW 00:20:07 31° S 00:32:08 10° ESE visible
09 Jun 10.8 20:42:03 10° S 20:52:25 17° SE 21:02:24 10° ESE visible
09 Jun 10.4 22:49:42 10° SW 23:04:54 29° SSE 23:17:49 10° ESE visible
10 Jun 10.6 21:35:47 10° SSW 21:49:41 25° SSE 22:02:36 10° ESE visible
10 Jun 10.3 23:46:42 10° SW 00:02:41 33° S 00:15:38 10° ESE visible
11 Jun 10.7 20:23:23 10° S 20:34:43 19° SE 20:46:03 10° ESE visible
11 Jun 10.4 22:31:42 10° SW 22:47:19 31° SSE 23:01:12 10° ESE visible
12 Jun 10.3 00:44:38 10° WSW 01:00:25 32° S 01:12:47 10° SE visible
12 Jun 10.5 21:17:45 10° SSW 21:32:00 27° SSE 21:45:52 10° ESE visible
12 Jun 10.3 23:28:51 10° SW 23:45:08 34° S 23:58:58 10° ESE visible
13 Jun 10.7 20:05:11 10° S 20:17:00 21° SE 20:29:20 10° ESE visible
13 Jun 10.4 22:13:55 10° SW 22:29:39 33° SSE 22:44:23 10° ESE visible
14 Jun 10.3 00:26:52 10° WSW 00:42:53 33° SSW 00:56:03 10° SE visible
14 Jun 10.5 21:00:01 10° SSW 21:14:17 29° SSE 21:28:55 10° ESE visible
14 Jun 10.3 23:11:11 10° SW 23:27:30 35° S 23:42:07 10° SE visible
15 Jun 10.6 19:47:21 10° S 19:59:17 23° SE 20:12:19 10° ESE visible
15 Jun 10.4 21:56:23 10° SW 22:11:57 34° S 22:27:22 10° ESE visible
